Regional Weather Roundup
Issued by NWS

Home | Current Version | Previous Version | Graphics & Text | Print | Product List | Glossary On
Versions: 1 2 3 4 5 6 7 8 9 10 11 12 13 14 15 16 17 18 19 20 21 22 23 24 25 26 27 28 29 30 31 32 33 34 35 36 37 38 39 40 41 42 43 44 45 46 47 48 49 50
000
ASUS45 KCYS 012110
RWRWY

WYOMING REGIONAL WEATHER ROUNDUP
NATIONAL WEATHER SERVICE CHEYENNE WY
300 PM MDT WED OCT 01 2014

NOTE:  "FAIR" INDICATES FEW OR NO CLOUDS BELOW 12,000 FEET
WITH NO SIGNIFICANT WEATHER AND/OR OBSTRUCTIONS TO VISIBILITY.

WYZ001-012200-
YELLOWSTONE NATIONAL PARK

CITY           SKY/WX    TMP DP  RH WIND       PRES   REMARKS
LK YELLOWSTONE   N/A     33  31  92 VRB6      30.08R WCI  28
W YELLOWSTONE  NOT AVBL

$$
WYZ002>013-054>058-071-098>099-012200-
NORTHERN WYOMING

CITY           SKY/WX    TMP DP  RH WIND       PRES   REMARKS
JACKSON        PTSUNNY   45  30  57 CALM      30.06R
CODY           MOSUNNY   52  34  50 CALM      29.98F
GREYBULL       PTSUNNY   57  32  38 NW7       29.94F
WORLAND        PTSUNNY   55  32  41 NW9       29.97S
SHERIDAN       PTSUNNY   56  36  47 NW17      29.94F
BUFFALO        CLOUDY    49  36  61 N13G24    29.97S
GILLETTE       CLOUDY    51  38  60 NW17      29.93S
HULETT         CLOUDY    50  37  62 NW5       29.94
NEWCASTLE      FAIR      50  37  62 NW14G21   29.93

$$
WYZ014>020-022>026-101>103-012200-
CENTRAL WYOMING

CITY           SKY/WX    TMP DP  RH WIND       PRES   REMARKS
BIG PINEY      CLOUDY    45  25  45 N22       30.04S
PINEDALE       CLOUDY    45  28  53 NW23G29   30.02F
DUBOIS         CLOUDY    43  23  45 N16       30.00S
LANDER         LGT RAIN  40  38  93 SW6       30.01S
RIVERTON       CLOUDY    43  36  76 N14       30.01R
CASPER         CLOUDY    42  38  85 N13       29.98S
DOUGLAS        LGT RAIN  46  42  86 N10       29.98R

$$
WYZ021-027>030-104>119-012200-
SOUTHERN WYOMING

CITY           SKY/WX    TMP DP  RH WIND       PRES   REMARKS
EVANSTON       PTSUNNY   39  35  86 N8        30.10R WCI  33
KEMMERER       CLOUDY    39  30  70 NW23G31   30.08R WCI  29
FORT BRIDGER   FAIR      44  32  64 W14G24    30.09F
ROCK SPRINGS   PTSUNNY   49  29  46 W21G28    30.01R
DIXON          LGT RAIN  41  37  86 W16       30.06R
RAWLINS        MOSUNNY   49  22  34 SW14      29.98S
SARATOGA       CLOUDY    45  32  61 NW5       30.00S
LARAMIE        LGT RAIN  36  34  92 N5        29.99S WCI  32
CHEYENNE       LGT RAIN  42  35  76 NW15      29.98R
TORRINGTON     CLOUDY    56  43  61 N16G24    29.88R
PINE BLUFFS    LGT RAIN  52  36  54 NW15G22   29.91R

$$


USA.gov is the U.S. government's official web portal to all federal, state and local government web resources and services.